Location: White Mills Observatory
(37.5374°N, 86.0303°W)
Time: 21:50:07
(UTC-04:00)

HST - Visible Passes

Search period start: 01 September 2014 00:00
Search period end: 11 September 2014 00:00
Orbit: 547 x 551 km, 28.5° (Epoch: 31 August)

Date Brightness Start Highest point End Pass type
(mag) Time Alt. Az. Time Alt. Az. Time Alt. Az.
04 Sep 3.2 21:34:14 10° S 21:34:17 10° S 21:34:17 10° S visible
05 Sep 2.8 21:26:19 10° SSW 21:28:03 14° S 21:28:03 14° S visible
06 Sep 2.6 21:18:46 10° SSW 21:21:23 16° SSE 21:21:42 16° SSE visible
07 Sep 2.5 21:11:23 10° SSW 21:14:18 19° SSE 21:15:16 17° SSE visible
08 Sep 2.4 21:04:06 10° SW 21:07:14 21° S 21:08:45 17° SE visible
09 Sep 2.4 20:56:55 10° SW 21:00:10 22° S 21:02:11 16° SE visible
10 Sep 2.3 20:49:47 10° SW 20:53:06 23° S 20:55:34 14° SE visible
10 Sep 3.6 22:30:58 10° WSW 22:31:07 11° SW 22:31:07 11° SW visible
